Wind_Speed
56 56 54 51 49 49 47 46 44 43 44 44 44 43 43 45 44 44 43 41 39 37 37 36 34 33 31 29 27 26 25 24 22 22 21 21 20 19 18 18 18 19 20 20
56 55 51 50 50 49 49 47 46 45 47 46 46 46 46 47 47 46 45 44 42 41 41 38 36 34 32 31 30 28 27 26 25 25 24 23 22 21 21 21 22 22 23 23
52 51 51 52 51 50 50 48 47 46 47 49 49 50 49 49 49 49 47 46 46 44 42 41 39 37 35 33 32 31 30 29 28 27 26 25 24 24 24 25 25 25 25 26
53 51 50 51 50 49 49 47 47 48 49 51 51 52 51 50 51 51 50 48 47 46 44 43 41 39 37 35 35 34 33 32 31 30 28 27 27 27 28 28 28 28 28 29
55 52 51 50 48 48 47 46 46 48 50 52 53 53 52 52 52 52 51 49 48 46 45 44 42 40 39 39 38 37 36 34 33 32 31 30 30 30 31 31 31 31 31 32
55 53 52 50 48 48 47 47 47 48 51 54 53 55 54 52 52 51 51 51 49 48 47 46 44 43 42 41 40 39 38 37 36 35 34 33 33 34 33 33 33 34 34 34
57 56 53 52 52 52 50 50 50 51 53 55 53 57 55 50 52 52 51 51 50 49 48 48 47 45 44 43 42 41 40 39 39 38 37 36 36 36 36 36 36 36 36 37
57 57 54 54 54 53 52 52 53 53 54 53 55 56 52 50 50 51 51 51 51 50 49 49 48 47 46 45 44 43 42 42 41 41 40 39 39 39 38 38 39 39 39 40
56 54 53 54 53 52 52 53 51 52 53 53 54 52 52 51 49 49 50 51 51 50 50 49 49 49 48 47 46 45 45 44 44 43 42 42 42 41 41 41 41 41 42 42
55 56 54 54 54 54 52 51 52 53 54 54 54 52 51 49 48 48 47 48 49 50 50 50 49 49 49 48 48 47 47 46 45 45 45 44 44 44 43 43 44 44 44 45
56 57 56 55 55 53 53 54 55 54 55 54 54 51 49 49 47 46 46 47 48 48 48 49 49 49 49 49 49 48 48 47 47 47 46 46 46 46 46 46 46 47 47 48
57 57 56 54 52 51 52 52 53 54 54 54 54 51 49 48 46 45 44 44 46 46 47 48 49 49 49 49 49 49 49 49 48 48 48 48 48 48 48 48 48 49 49 50
56 57 57 57 55 53 53 53 53 52 52 53 53 50 48 48 46 43 42 42 43 45 46 47 48 49 49 49 49 49 49 50 50 50 50 49 49 49 49 50 50 51 51 51
54 56 56 55 53 51 52 52 53 53 55 54 52 49 48 45 44 43 41 40 41 42 44 46 47 47 48 48 49 49 49 49 50 50 50 50 50 50 51 51 51 51 51 51
53 54 54 52 52 50 48 48 49 50 51 51 49 49 47 44 42 41 40 40 40 40 42 43 45 47 47 48 48 49 49 49 50 50 50 50 50 51 51 51 51 51 51 51
52 52 52 52 52 51 51 49 48 48 48 49 49 49 46 46 45 44 42 41 41 41 41 43 44 46 47 48 48 48 48 49 49 50 50 50 50 50 50 50 50 51 51 52
50 51 51 52 53 53 54 51 50 49 48 47 48 45 46 47 45 44 44 44 43 43 43 44 45 45 46 48 48 48 48 48 48 49 49 49 50 50 50 51 51 52 52 53
47 48 49 50 51 54 49 47 49 49 48 46 46 45 46 46 45 45 46 46 46 46 46 46 46 46 47 48 49 50 50 49 49 50 50 50 50 51 51 52 53 54 55 56
47 48 49 51 52 51 48 46 46 48 48 46 46 45 46 46 48 47 46 46 46 47 48 48 48 49 49 49 49 50 50 50 50 51 51 52 52 53 54 55 56 57 58 60
48 49 49 50 51 50 44 44 45 47 47 42 44 45 46 48 49 45 43 45 47 48 48 49 49 50 50 50 51 51 51 51 51 52 53 54 55 56 56 57 58 59 61 62
49 51 52 51 50 47 43 43 44 46 41 39 42 44 46 48 47 44 44 46 47 48 49 49 49 49 50 51 52 52 52 52 53 54 54 55 56 57 59 60 60 61 62 63
47 48 50 50 51 47 44 45 44 41 41 42 41 42 44 46 46 46 47 47 48 49 49 49 49 50 50 51 52 53 53 54 55 56 57 57 58 59 60 61 62 63 64 64
47 47 47 47 46 43 43 42 41 41 43 43 43 42 43 44 45 46 47 48 48 49 49 50 51 51 52 53 53 54 55 56 57 58 58 59 60 61 61 62 63 63 64 65
45 45 46 46 46 46 44 43 43 42 43 44 44 44 44 44 45 46 47 48 48 48 49 50 51 51 52 53 54 55 56 57 58 59 59 60 60 61 61 62 63 63 63 64
43 43 44 45 45 46 46 45 45 45 45 45 45 45 45 46 46 46 47 48 49 50 50 51 52 53 54 55 55 56 57 58 59 59 59 60 60 60 61 61 61 62 62 62
44 44 44 45 44 45 45 45 46 46 47 47 47 47 47 47 47 48 48 49 50 50 51 51 52 52 53 54 55 56 56 57 57 58 58 58 59 59 59 59 60 60 60 61
Wind_Direction
226 228 229 232 234 235 234 232 232 232 233 233 232 228 224 223 222 221 221 219 217 216 218 220 220 220 220 221 222 223 224 226 228 230 233 237 241 246 251 256 261 266 271 276
225 229 230 230 231 232 232 232 232 232 233 233 233 229 225 223 223 223 223 222 220 220 221 222 223 224 224 225 226 227 229 231 233 235 239 243 248 252 256 259 263 267 272 276
229 230 228 228 229 231 232 233 233 234 234 235 234 231 227 224 224 223 224 223 222 222 223 224 225 226 227 228 229 230 232 234 237 240 244 248 252 255 259 262 266 270 274 277
223 224 225 227 229 231 232 233 234 235 234 235 235 235 229 227 225 224 225 226 225 225 226 227 228 228 230 230 232 233 235 237 240 244 248 251 254 258 261 265 269 273 275 278
221 223 224 226 227 230 232 232 234 236 236 236 235 237 231 229 228 226 226 227 227 227 229 230 230 230 231 233 234 236 238 240 243 247 250 253 256 259 263 267 270 273 276 279
221 222 223 224 225 227 229 231 234 235 236 237 236 238 234 230 231 229 229 230 230 229 230 231 232 233 233 235 237 239 242 244 247 249 252 255 257 260 264 268 271 273 276 279
218 220 221 222 224 226 228 230 232 235 236 238 237 239 237 232 232 232 232 232 232 231 232 233 234 235 236 237 239 241 243 246 249 251 254 256 259 261 265 268 271 273 276 278
219 220 222 223 225 228 230 232 234 237 240 242 240 240 240 236 233 233 234 234 233 233 234 235 236 237 238 239 241 243 245 247 250 253 255 258 260 263 266 269 272 274 276 278
221 223 224 225 225 227 228 231 234 237 240 242 243 242 241 240 237 235 236 236 236 235 236 237 238 238 239 241 243 245 246 249 251 253 256 259 262 264 267 269 271 274 276 278
223 225 225 226 225 226 228 230 232 235 238 241 243 243 241 241 241 239 239 239 238 238 238 238 239 240 241 242 243 246 248 250 252 254 257 259 262 265 267 269 271 273 275 277
223 225 226 227 228 229 230 230 233 235 238 242 244 243 242 243 242 242 242 241 240 240 240 240 240 241 242 243 244 246 248 250 252 255 257 259 262 264 267 269 271 273 274 276
222 225 228 229 230 232 233 235 237 239 241 243 246 244 244 245 245 245 245 244 242 241 241 242 242 243 243 244 245 247 249 251 253 255 257 259 262 264 266 268 270 272 274 275
224 226 228 229 229 230 233 234 236 238 241 243 244 243 243 245 247 248 247 245 244 242 242 243 244 245 245 246 246 248 249 251 253 255 257 259 262 264 265 267 269 271 272 274
229 231 232 234 236 237 237 237 237 237 239 241 242 243 243 244 246 248 247 246 244 243 242 243 244 245 246 246 247 248 249 251 253 255 257 259 261 263 265 267 268 270 271 273
229 231 234 236 238 239 240 241 242 242 243 245 245 244 243 245 246 245 245 245 244 243 242 242 242 243 244 246 247 249 250 252 254 256 257 259 261 262 264 266 267 269 271 273
229 231 233 235 237 238 239 238 239 240 241 243 243 242 242 244 244 244 244 244 242 242 242 241 241 243 244 245 247 248 250 252 254 256 257 259 260 262 264 266 267 269 271 274
231 231 232 235 237 238 239 238 240 242 243 244 245 243 243 245 245 244 243 242 241 241 241 242 242 243 244 245 246 248 250 252 254 256 257 259 261 262 264 266 268 270 273 275
230 232 234 236 238 240 240 240 241 243 243 244 245 244 245 246 245 243 243 243 242 242 243 243 244 244 245 247 248 249 251 253 255 256 258 260 262 263 265 267 270 272 274 276
225 228 232 234 238 241 240 241 242 243 242 242 244 245 246 247 247 245 246 246 245 244 243 244 244 245 247 248 250 251 253 254 255 257 259 261 262 265 267 269 271 273 276 278
224 226 229 233 236 239 240 242 242 243 243 241 244 244 244 246 248 247 247 247 245 245 245 246 246 247 248 249 251 253 255 256 258 259 261 262 264 266 268 271 273 275 277 279
225 226 229 232 236 240 240 240 241 243 245 243 243 244 246 247 249 247 245 245 245 246 247 247 248 249 250 251 253 254 256 258 259 260 262 264 266 268 270 272 274 276 277 280
231 232 233 234 237 239 242 242 242 244 244 245 243 244 246 248 248 248 248 248 248 248 249 249 250 251 252 253 254 256 257 258 260 262 264 266 268 270 271 273 275 277 278 280
231 234 236 239 243 245 245 248 247 245 245 246 247 245 246 247 248 249 250 251 251 251 252 252 252 253 254 255 256 258 259 260 262 263 265 267 268 270 272 273 275 277 278 280
232 233 234 235 237 240 242 244 245 245 246 247 248 248 249 249 249 250 251 252 252 253 254 254 254 255 255 256 257 258 260 261 263 265 266 268 269 271 272 274 275 277 278 279
234 234 235 237 238 240 241 242 243 244 244 245 246 248 249 250 250 251 252 253 254 254 255 256 257 257 258 259 260 261 262 263 264 266 268 269 270 271 272 273 274 276 277 278
233 234 235 238 239 241 242 244 244 245 245 245 246 248 249 250 251 251 252 254 255 255 256 258 259 260 261 261 262 263 263 264 265 267 268 269 269 270 271 272 273 274 275 277
Height
5707 5715 5724 5734 5740 5746 5751 5756 5761 5766 5769 5773 5778 5785 5791 5795 5801 5807 5812 5817 5822 5826 5829 5832 5835 5839 5842 5845 5848 5850 5852 5854 5856 5857 5859 5860 5861 5862 5864 5864 5864 5864 5864 5864
5699 5709 5721 5725 5730 5736 5742 5748 5753 5758 5761 5765 5770 5776 5782 5787 5794 5800 5805 5811 5816 5819 5822 5827 5831 5834 5838 5841 5843 5846 5848 5850 5852 5853 5854 5856 5857 5859 5859 5860 5860 5860 5860 5860
5694 5706 5710 5716 5722 5728 5734 5741 5746 5750 5753 5756 5761 5767 5773 5780 5785 5792 5797 5803 5808 5812 5817 5821 5825 5829 5832 5836 5838 5841 5843 5845 5846 5848 5850 5852 5853 5854 5854 5855 5855 5855 5855 5855
5683 5693 5701 5707 5715 5722 5728 5733 5737 5740 5743 5747 5752 5757 5766 5772 5777 5784 5790 5796 5801 5806 5810 5815 5819 5823 5827 5830 5832 5835 5837 5839 5841 5843 5845 5846 5848 5848 5848 5849 5849 5849 5849 5849
5676 5685 5692 5699 5710 5714 5720 5724 5727 5731 5734 5738 5743 5748 5758 5764 5769 5777 5783 5789 5794 5799 5804 5808 5813 5817 5820 5822 5825 5828 5831 5833 5835 5837 5839 5840 5841 5842 5842 5843 5843 5843 5842 5842
5668 5676 5683 5693 5699 5704 5709 5714 5717 5720 5723 5728 5737 5739 5748 5757 5764 5770 5776 5781 5787 5791 5796 5801 5805 5808 5812 5816 5819 5822 5824 5827 5828 5830 5832 5834 5835 5835 5835 5836 5836 5836 5835 5834
5657 5665 5674 5682 5688 5693 5699 5705 5708 5710 5713 5722 5730 5729 5741 5752 5757 5762 5768 5773 5778 5783 5788 5792 5796 5800 5805 5808 5811 5814 5816 5819 5821 5823 5825 5826 5827 5827 5828 5828 5828 5828 5827 5826
5649 5657 5667 5674 5680 5687 5692 5696 5701 5705 5709 5716 5718 5722 5736 5743 5749 5754 5759 5764 5769 5774 5779 5783 5787 5792 5796 5799 5803 5805 5808 5811 5812 5815 5816 5818 5818 5819 5820 5820 5820 5820 5819 5818
5644 5653 5660 5666 5673 5678 5681 5686 5693 5697 5700 5704 5707 5718 5726 5733 5740 5746 5751 5755 5760 5765 5769 5774 5778 5782 5786 5790 5794 5797 5799 5802 5804 5806 5807 5809 5810 5810 5811 5811 5811 5810 5809 5808
5638 5644 5651 5656 5661 5667 5673 5679 5682 5686 5690 5694 5701 5709 5719 5726 5731 5737 5742 5746 5750 5755 5759 5763 5768 5772 5776 5780 5783 5787 5790 5792 5795 5796 5798 5799 5800 5801 5801 5801 5801 5800 5799 5798
5628 5635 5641 5646 5652 5661 5666 5669 5673 5678 5682 5688 5693 5704 5713 5717 5722 5727 5732 5736 5740 5745 5749 5753 5757 5761 5765 5770 5773 5777 5780 5782 5785 5786 5788 5789 5790 5790 5791 5791 5791 5790 5789 5787
5618 5625 5630 5638 5646 5651 5656 5661 5667 5671 5677 5681 5685 5697 5702 5708 5713 5717 5722 5726 5730 5734 5738 5742 5747 5751 5755 5759 5763 5766 5769 5772 5774 5776 5777 5779 5779 5780 5780 5780 5780 5779 5778 5776
5611 5615 5620 5625 5634 5640 5645 5652 5658 5664 5667 5670 5676 5688 5694 5698 5703 5707 5711 5715 5719 5723 5727 5732 5736 5740 5744 5748 5751 5755 5758 5760 5762 5764 5766 5767 5768 5769 5769 5769 5768 5767 5766 5765
5603 5607 5613 5620 5629 5635 5639 5644 5649 5652 5654 5661 5668 5678 5684 5689 5694 5697 5701 5704 5708 5712 5716 5721 5725 5729 5732 5736 5739 5743 5746 5748 5750 5752 5754 5755 5756 5757 5757 5756 5756 5755 5754 5753
5591 5598 5606 5613 5619 5625 5630 5635 5639 5643 5649 5655 5662 5667 5675 5680 5683 5687 5690 5694 5698 5702 5705 5709 5713 5717 5720 5724 5727 5731 5734 5736 5738 5740 5742 5743 5744 5744 5745 5744 5744 5743 5742 5741
5583 5590 5597 5602 5607 5612 5617 5623 5628 5634 5640 5645 5651 5657 5666 5668 5671 5675 5679 5683 5687 5691 5694 5698 5701 5705 5709 5712 5716 5719 5722 5724 5726 5728 5730 5731 5732 5732 5732 5732 5732 5731 5730 5729
5575 5582 5588 5592 5596 5599 5604 5615 5621 5626 5632 5637 5641 5652 5656 5657 5661 5665 5668 5671 5675 5679 5683 5687 5690 5694 5697 5701 5704 5707 5710 5712 5714 5716 5717 5719 5719 5720 5720 5720 5719 5719 5717 5716
5566 5573 5579 5583 5587 5588 5602 5609 5612 5617 5623 5629 5633 5639 5643 5646 5649 5652 5655 5659 5664 5668 5672 5675 5678 5682 5686 5689 5692 5695 5698 5700 5702 5704 5705 5706 5707 5707 5707 5707 5706 5705 5704 5702
5556 5563 5568 5572 5575 5581 5592 5599 5604 5607 5612 5620 5624 5628 5631 5634 5635 5641 5647 5650 5654 5657 5660 5663 5667 5670 5674 5678 5680 5683 5686 5688 5690 5691 5692 5693 5693 5694 5693 5693 5692 5691 5690 5688
5547 5553 5558 5562 5566 5572 5587 5593 5594 5597 5601 5613 5614 5617 5619 5620 5624 5634 5637 5638 5641 5644 5648 5652 5655 5659 5663 5665 5668 5671 5673 5675 5677 5678 5678 5679 5680 5680 5679 5679 5678 5677 5675 5673
5536 5541 5546 5552 5557 5566 5577 5580 5583 5587 5599 5602 5603 5605 5607 5610 5615 5621 5623 5626 5629 5633 5636 5640 5644 5647 5650 5653 5655 5658 5660 5662 5663 5663 5664 5665 5665 5665 5665 5664 5663 5661 5659 5657
5529 5534 5539 5544 5549 5560 5567 5569 5574 5581 5586 5587 5591 5594 5596 5600 5604 5607 5611 5614 5618 5621 5625 5628 5632 5635 5637 5640 5642 5644 5647 5648 5648 5649 5650 5650 5650 5650 5649 5648 5647 5645 5643 5641
5520 5527 5533 5539 5547 5554 5557 5561 5566 5570 5574 5576 5579 5583 5587 5589 5592 5596 5599 5602 5606 5609 5613 5616 5619 5621 5624 5626 5628 5630 5632 5632 5633 5634 5634 5635 5634 5634 5633 5632 5631 5629 5627 5624
5512 5518 5523 5529 5535 5541 5545 5550 5554 5558 5562 5565 5568 5572 5575 5578 5581 5584 5587 5590 5593 5596 5599 5602 5605 5607 5610 5611 5613 5615 5616 5617 5617 5618 5619 5619 5618 5618 5617 5615 5614 5612 5610 5608
5504 5509 5513 5519 5525 5530 5534 5539 5543 5547 5550 5553 5557 5560 5563 5566 5570 5573 5575 5578 5580 5583 5586 5588 5591 5593 5595 5596 5598 5599 5600 5601 5601 5602 5602 5602 5602 5601 5600 5599 5597 5596 5594 5592
5493 5499 5505 5510 5516 5520 5524 5528 5531 5535 5539 5542 5545 5548 5551 5554 5557 5560 5563 5565 5567 5569 5572 5574 5576 5578 5579 5580 5582 5583 5584 5585 5585 5586 5586 5586 5585 5584 5583 5582 5581 5579 5577 5575